sat.trackr.live / text

‹ back to catalog

HAWK-12C

NORAD 64621 · 2025-138A

PAYLOAD ACTIVE UNKNOWN

§ Identity

Operator
Country
US
Launch date
2025-06-26
Launch site
RLLB
Launch vehicle
Mass (kg)
RCS (m²)

External: N2YO · Heavens-Above · Gunter

§ Orbital elements

Epoch: 2026-05-24T23:20:31.177248Z

Period
94.86 min
Inclination
97.4347°
Eccentricity
0.0012835
Mean motion
15.17999731 rev/d
Perigee alt
503.0 km
Apogee alt
520.7 km
Semi-major
6,890.0 km
B*
1.6820e-4
RAAN
147.8172°
Arg perigee
217.9547°
Mean anomaly
142.0783°
Rev number
5,034

§ Raw data

HAWK-12C1 64621U 25138A   26144.97258307  .00003358  00000+0  16820-3 0  99942 64621  97.4347 147.8172 0012835 217.9547 142.0783 15.17999731 50348

JSON: /api/v1/satellites/64621 · /tle

For live sub-satellite position, see the globe view (requires WebGL).

§ Visibility from observer

Set your observer location to see the next 7 days of passes ≥ 10°. The values pass through the URL so the page stays shareable.

No JS? Fill the form by hand. The geolocation button needs JavaScript.